www.pogodaiklimat.ru

Погода и климат >> Архив погоды >> Россия >> Кировская область >> Яранск


ПОГОДА в Яранске

  • Прогноз погоды в Яранске
  • Монитор погоды в Яранске

АРХИВ ПОГОДЫ в Яранске

Время (UTC), дата Ветер
(напр.,м/с)
 
Видим.   Явления Облачность Т
(С)
Тd
(С)
f
(%)
Тe
(С)
Тes
(С)
Комфортность P
(гПа)
Po
(гПа)
Тmin
(С)
Tmax
(С)
R
(мм)
R24
(мм)
S
(см)
09 16.08 В 1-2
{15}
н/о гроза, ливневой дождь 10/8 420 м
[Cb cap Ac und]
+15.0 +14.1 94 +15 +16 1015.1 1002.5
12 16.08 СВ 1-3
{4}
н/о слаб. ливневой дождь {гроза} 10/8 450 м
[Cb cap Ac und]
+15.6 +14.9 96 +16 +17 1015.3 1002.8
15 16.08 штиль 0
{3}
н/о {ливн. осадки} 10/8 400 м
[Frnb Ac und]
+16.4 +14.5 89 +16 +16 1015.1 1002.6 +18.1 21
18 16.08 штиль 0
{2}
н/о в посл. час ливневой дождь 10/8 420 м
[Frnb Ac und]
+15.7 +14.5 93 +15 +15 1016.3 1003.8
21 16.08 СВ 1-3
{3}
н/о слаб. ливневой дождь 10/8 420 м
[Cb cap Ac und]
+15.4 +14.5 94 +16 +16 1016.1 1003.6
00 17.08 СВ 1-2
{3}
н/о слаб. ливневой дождь 10/10 420 м
[Cb cap]
+15.2 +14.5 96 +16 +16 1016.4 1003.8
03 17.08 СВ 1-3
{4}
н/о слаб. ливневой дождь 10/10 400 м
[Cb cap]
+15.3 +14.6 96 +16 +16 1016.1 1003.6 +15.1 8
06 17.08 СВ 1-3
{4}
н/о {ливн. осадки} 10/8 420 м
[Frnb Ac und]
+16.4 +15.2 93 +17 +18 1016.7 1004.2
09 17.08 СВ 1-3
{4}
н/о 10/5 600 м
[Sc Ac und]
+17.1 +15.4 90 +18 +20 1017.1 1004.7
12 17.08 СВ 1-3
{6}
н/о 10/8 420 м
[Frnb Ac und]
+17.7 +15.5 87 +19 +19 1017.5 1005.1
15 17.08 СВ 1-3
{5}
н/о 10/10 420 м
[Frnb]
+17.3 +15.2 87 +18 +18 1017.5 1005.1 +18.0 1
18 17.08 штиль 0
{3}
н/о 9/5 600 м
[Sc Ac trans]
+16.5 +14.8 90 +16 +16 1017.6 1005.1
21 17.08 штиль 0
{2}
н/о слаб. ливневой дождь 10/8 400 м
[Cb cap Ac und]
+16.0 +14.8 93 +16 +16 1017.4 1004.9
00 18.08 СВ 1-3
{4}
н/о слаб. ливневой дождь 10/10 420 м
[Cb cap]
+15.6 +14.7 94 +16 +16 1017.3 1004.8
03 18.08 СВ 1-3
{4}
н/о слаб. ливневой дождь 10/10 420 м
[Cb cap]
+15.7 +14.7 94 +16 +16 1017.1 1004.6 +15.5 5
06 18.08 В 2-4
{5}
н/о {ливн. осадки} 10/10 300 м
[Frnb]
+17.0 +16.4 96 +17 +17 1016.6 1004.2
09 18.08 В 2-5
{6}
н/о в посл. час ливневой дождь 9/8 360 м
[Frnb Ac trans]
+20.4 +17.7 84 +24 +26 комфорт 1015.5 1003.2
12 18.08 В 2-5
{7}
н/о {ливн. осадки} 9/8 800 м
[Sc Ac trans]
+22.8 +18.5 77 +29 +29 очень
душно
1015.6 1003.5
15 18.08 В 1-3
{6}
н/о {ливн. осадки} 9/8 750 м
[Sc Ac trans]
+21.7 +18.2 80 +26 +26 душно 1015.3 1003.1 +23.0 0.1
18 18.08 СВ 2-3
{4}
н/о {ливн. осадки} 8/5 600 м
[Sc Ac trans Ci fib]
+19.0 +17.4 90 +21 +21 комфорт 1015.6 1003.3
21 18.08 В 1-2
{3}
н/о местами туман поземный 9/9 720 м
[Sc]
+19.3 +16.3 83 +22 +22 комфорт 1015.7 1003.4
00 19.08 ЮВ 1-2
{2}
н/о местами туман поземный 10/3 600 м
[Sc Cs]
+17.8 +16.4 92 +19 +19 1016.2 1003.8
03 19.08 С 2-3
{3}
н/о слаб. ливневой дождь 10/8 450 м
[Cb cap Ac und]
+17.7 +16.2 91 +18 +18 1016.4 1004.0 +17.3 3
06 19.08 ЮВ 1-3
{3}
н/о слаб. ливневой дождь 10/10 400 м
[Cb cap]
+18.7 +17.2 91 +21 +21 комфорт 1017.8 1005.4
09 19.08 В 1-2
{3}
н/о в посл. час ливневой дождь 9/8 420 м
[Frnb Ac trans]
+22.0 +18.7 82 +27 +29 душно 1017.2 1005.0
12 19.08 Ю 4-6
{7}
н/о {ливн. осадки} 8/3 600 м
[Sc Ac trans]
+24.6 +17.4 64 +29 +30 душно 1015.9 1003.8
15 19.08 Ю 2-6
{8}
н/о 8/4 600 м
[Sc Ac trans]
+23.1 +17.7 72 +29 +29 очень
душно
1015.8 1003.7 +24.8 3
18 19.08 штиль 0
{6}
н/о местами туман поземный 6/3 600 м
[Sc Ac trans]
+17.9 +16.4 91 +18 +18 1017.3 1004.9
21 19.08 штиль 0
{1}
н/о туман 4/0
[Ac trans]
+15.9 +14.7 93 +16 +16 1017.5 1005.0
00 20.08 штиль 0
{3}
н/о дымка {туман} 9/0
[Ac trans]
+15.5 +14.4 93 +15 +15 1018.0 1005.5
03 20.08 З 1-2
{2}
н/о туман ?/? +15.4 +14.3 93 +16 +16 1018.8 1006.3 +13.0
06 20.08 СЗ 3-4
{5}
н/о {ливн. осадки, туман} 10/8 700 м
[Sc Ac und]
+17.8 +15.6 87 +18 +18 1019.9 1007.5
09 20.08 СЗ 2
{4}
н/о 10/8 800 м
[Sc Ac und]
+19.7 +15.7 78 +22 +23 комфорт 1020.5 1008.1
12 20.08 С 2-5
{6}
н/о 8/8 800 м
[Sc]
+22.4 +15.8 66 +26 +28 жарко 1020.7 1008.4
15 20.08 штиль 0
{6}
н/о 8/6 750 м
[Sc Ac trans]
+22.0 +15.9 68 +26 +26 душно 1020.7 1008.4 +23.4 0.0
18 20.08 штиль 0
{1}
н/о местами туман поземный 3/0
[Ci fib]
+15.6 +14.0 90 +15 +15 1021.4 1008.9
21 20.08 штиль 0
{2}
н/о местами туман поземный 3/0
[Ci fib]
+12.6 +11.4 92 +12 +12 1022.3 1009.6
00 21.08 штиль 0
{1}
н/о туман 10/0
[Cs]
+11.3 +10.7 96 +11 +11 1022.4 1009.6
03 21.08 штиль 0
{1}
н/о туман 10/0
[Cs]
+12.2 +11.9 98 +12 +12 1023.1 1010.4 +11.1
06 21.08 ЮВ 1-2
{2}
н/о {туман} 4/0
[Ac trans Ci fib]
+22.2 +17.7 76 +27 +33 душно 1022.7 1010.4
09 21.08 З 2-4
{5}
н/о 6/4 1000 м
[Cu hum Ac trans Ci fib]
+25.2 +15.9 56 +28 +34 жарко 1021.8 1009.7
12 21.08 З 1-2
{5}
н/о 9/5 1000 м
[Cu hum Ac trans Ci fib]
+25.7 +15.7 54 +29 +31 душно 1021.6 1009.5
15 21.08 З 1-2
{4}
н/о 10/0
[Ac trans Ci fib]
+25.0 +17.4 63 +29 +29 душно 1021.3 1009.2 +27.4
18 21.08 З 1-1
{2}
н/о местами туман поземный 6/0
[Ac trans Ci fib]
+18.7 +17.2 91 +21 +21 комфорт 1021.9 1009.5
21 21.08 штиль 0
{2}
н/о местами туман поземный 4/3 1000 м
[Cu hum Ac trans Ci fib]
+16.4 +15.1 92 +16 +16 1022.0 1009.5
00 22.08 штиль 0
{1}
н/о туман поземный 3/3 1000 м
[Cu hum]
+14.7 +13.8 94 +14 +14 1022.3 1009.7
03 22.08 штиль 0
{1}
н/о туман 10/0
[Cs]
+15.2 +14.5 96 +15 +16 1022.4 1009.8 +13.0
06 22.08 штиль 0
{1}
н/о дымка {туман} 10/0
[Cs]
+18.4 +17.3 93 +19 +26 1021.9 1009.5
09 22.08 ЮЗ 1-2
{3}
н/о 8/8 1080 м
[Cu hum]
+25.3 +16.9 60 +29 +31 душно 1020.7 1008.6
12 22.08 Ю 2-3
{5}
н/о 6/6 1110 м
[Cu hum]
+26.5 +16.7 55 +30 +32 душно 1019.7 1007.6
15 22.08 ЮЗ 2-4
{6}
н/о 3/3 1000 м
[Cu hum]
+24.5 +16.0 59 +28 +28 душно 1017.4 1005.3 +26.9
18 22.08 Ю 1-2
{4}
н/о в посл. час гроза 6/3 300 м
[Cb calv Ac trans Ci fib]
+18.4 +16.0 86 +20 +20 1017.3 1004.9
21 22.08 СЗ 3-6
{11}
н/о {гроза, ливн. осадки} 10/6 750 м
[Sc Ac und]
+18.0 +15.8 87 +18 +18 1018.4 1006.0
00 23.08 З 2-4
{8}
н/о {гроза, ливн. осадки} 9/8 720 м
[Sc Ac trans]
+15.4 +13.2 87 +15 +15 1020.4 1007.8
03 23.08 СЗ 2-4
{5}
н/о 9/4 600 м
[Sc Ac trans Ci fib]
+13.4 +11.3 87 +13 +13 1022.4 1009.7 +13.3 3

 

Местоположение метеостанции Яранск (Кировская область, Россия): широта 57.37 долгота 47.92 высота над уровнем моря 105 м.

В архиве по умолчанию представлена погода в Яранске за последнюю неделю. Архивные данные за месяц целиком и за предыдущие месяцы, начиная с января 2011 года, Вы можете получить, выбрав интересующий диапазон дат из раскрывающегося списка и нажав кнопку "Ввод!".


*Определитесь, кто Вы:
робот инопланетянин человек

Внимание! Время в таблицах - всемирное. Для получения местного времени необходимо прибавить поправку, которая равна 3 ч.

Смотрите также архив погоды в соседних городах и на ближайших метеорологических станциях:

Погода в Санчурске (Кировская область, Россия) (56 км)
Погода в Новом Торьяле (Марий-Эл, Россия) (64 км)
Погода в Йошкар-Оле (Марий-Эл, Россия) (83 км)
Погода в Шахунье (Нижегородская область, Россия) (84 км)
Погода в Котельниче (Кировская область, Россия) (107 км)
Погода в Шабалино (Кировская область, Россия) (114 км)
Погода в Нолинске (Кировская область, Россия) (123 км)
Погода в Морках (Марий-Эл, Россия) (124 км)
Погода в Уржуме (Кировская область, Россия) (128 км)
Погода в Ветлуге (Нижегородская область, Россия) (139 км)

Пояснения к столбцам:

Ветер - указаны скорость ветра в м/с - средняя за 10 мин, порывы в срок и между сроками (в фигурных скобках) и направление, откуда дует ветер: С - северный, СВ - северо-восточный, В - восточный, ЮВ - юго-восточный, Ю - южный, ЮЗ - юго-западный, З - западный, СЗ - северо-западный.
Видимость - горизонтальная дальность видимости в метрах или километрах. При видимости от 1 до 10 км при отсутствии осадков обычно наблюдается дымка, при ухудшении видимости до 1 км и менее - туман. В сухую погоду видимость может ухудшаться дымом, пылью или мглою.
Явления - указаны атмосферные явления, наблюдавшиеся в срок или в последний час перед сроком; фигурными скобками обозначены явления, наблюдавшиеся между сроками (за 1-3 часа до срока); квадратными скобками обозначены град или гололедные отложения с указанием их диаметра в мм.
Облачность - указаны через наклонную черту общая и нижняя облачность в баллах и высота нижней границы облаков в метрах; квадратными скобками обозначены формы облаков: Ci - перистые, Cs - перисто-слоистые, Cc - перисто-кучевые, Ac - высококучевые, As - высокослоистые, Sc - слоисто-кучевые, Ns - слоисто-дождевые, Cu - кучевые, Cb - кучево-дождевые. Подробнее классификацию облаков см. в Атласе облаков (PDF).
T - Температура воздуха - температура, измеренная на высоте 2 м над землей.
Td - Температура точки росы - температура, при понижении до которой содержащийся в воздухе водяной пар достигнет насыщения.
f - Относительная влажность воздуха - влажноcть воздуха, измеренная на высоте 2 м над землей.
Te - Эффективная температура - температура, которую ощущает одетый по сезону человек в тени. Характеристика душности погоды. При расчете учитывается влияние влажности воздуха и скорости ветра на теплоощущения человека.
Tes - Эффективная температура на солнце - температура, которую ощущает человек, с поправкой на солнечный нагрев. Характеристика знойности погоды. Зависит от высоты солнца над горизонтом, облачности и скорости ветра. Ночью, в пасмурную погоду, а также при ветре 12 м/с и более поправка равна нулю.
P - Атмосферное давление - приведенное к уровню моря атмосферное давление.
Po - Атмосферное давление - измеренное на уровне метеостанции атмосферное давление.
Tmin - Минимальная температура - минимум температуры воздуха на высоте 2 м над землей.
Tmax - Максимальная температура - максимум температуры воздуха на высоте 2 м над землей.
R - Количество осадков - Количество выпавших осадков за период времени, мм. При наведении курсора мыши на число - период времени, за который выпало указанное количество осадков.
R24 - Количество осадков - Количество выпавших осадков за 24 часа, мм.
S - Снежный покров - Высота снежного покрова, см. При наведении курсора мыши на число - состояние снежного покрова и степень покрытия местности в баллах.